Wakefield, VA

8:52 AM EST on December 08, 2019 (GMT -0500)
Wakefield Municipal

Weather History for KAKQ - October, 2019

Change the Weather History Date:

Sunday, October 20, 2019

  Actual Average (WUND) Record (WUND)
Temperature  
Mean Temperature 64 °F -  
Max Temperature 70 °F - - (-1)
Min Temperature 57 °F - - (-1)
Degree Days  
Heating Degree Days 2    
Growing Degree Days 14 (Base 50)    
Moisture  
Dew Point 61 °F    
Average Humidity 91    
Maximum Humidity 97    
Minimum Humidity 75    
Precipitation  
Precipitation 2.83 in - - ()
Sea Level Pressure  
Sea Level Pressure 29.77 in    
Wind  
Wind Speed 4 mph (North)    
Max Wind Speed 12 mph    
Max Gust Speed 23 mph    
Visibility 4 miles    
Events Rain    
Averages and records for this station are not official NWS values.
T = Trace of Precipitation, MM = Missing Value Source: NWS Daily Summary

Daily Weather History Graph

Daily Weather History Graph

Search for Another Location

Airport or City:

Astronomy

Oct. 20, 2019 Rise Set
Actual Time 7:20 AM EDT 6:24 PM EDT
Civil Twilight 6:53 AM EDT 6:51 PM EDT
Nautical Twilight 6:23 AM EDT 7:21 PM EDT
Astronomical Twilight 5:53 AM EDT 7:51 PM EDT
Moon 11:37 PM EDT (10/20) 1:40 PM EDT (10/20)
Length of Visible Light 11h 57m
Length of Day
11h 04m
Waning Gibbous, 59% of the Moon is Illuminated
Oct 20
Waning Gibbous
Oct 21
Last Quarter
Oct 27
New
Nov 4
First Quarter
Nov 12
Full

Hourly Weather History & Observations

Time (EDT) Temp. Dew Point Humidity Pressure Visibility Wind Dir Wind Speed Gust Speed Precip Events Conditions
12:54 AM 57.9 °F 51.1 °F 78% 29.99 in 10.0 mi Calm Calm - N/A   Overcast
1:54 AM 57.9 °F 52.0 °F 81% 29.96 in 10.0 mi Calm Calm - N/A   Overcast
2:54 AM 59.0 °F 51.1 °F 75% 29.94 in 10.0 mi Calm Calm - N/A   Overcast
3:54 AM 57.0 °F 54.0 °F 89% 29.91 in 6.0 mi Calm Calm - 0.03 in Rain Rain
4:17 AM 57.9 °F 55.0 °F 90% 29.90 in 2.5 mi Calm Calm - 0.04 in Rain Rain
4:26 AM 57.9 °F 55.0 °F 90% 29.90 in 3.0 mi Calm Calm - 0.05 in Rain Rain
4:33 AM 57.9 °F 55.9 °F 93% 29.89 in 2.0 mi NE 3.5 mph - 0.08 in Rain Heavy Rain
4:36 AM 57.9 °F 55.9 °F 93% 29.89 in 1.8 mi ENE 3.5 mph - 0.09 in Rain Rain
4:44 AM 57.9 °F 55.9 °F 93% 29.89 in 2.5 mi ENE 3.5 mph - 0.10 in Rain Rain
5:10 AM 59.0 °F 57.0 °F 93% 29.88 in 3.0 mi Variable 3.5 mph - 0.05 in Rain Rain
5:32 AM 60.1 °F 57.9 °F 93% 29.86 in 5.0 mi ENE 5.8 mph - 0.07 in Rain Light Rain
5:54 AM 61.0 °F 59.0 °F 93% 29.86 in 5.0 mi ENE 6.9 mph - 0.09 in Rain Rain
6:39 AM 62.1 °F 60.1 °F 93% 29.84 in 2.5 mi NE 5.8 mph - 0.17 in Rain Heavy Rain
6:54 AM 62.1 °F 60.1 °F 93% 29.83 in 1.8 mi ENE 5.8 mph - 0.31 in Rain Heavy Rain
6:59 AM 62.1 °F 60.1 °F 93% 29.82 in 2.0 mi ENE 5.8 mph - 0.04 in Rain Heavy Rain
7:32 AM 63.0 °F 61.0 °F 93% 29.79 in 2.5 mi NE 8.1 mph - 0.18 in Rain Heavy Rain
7:41 AM 63.0 °F 61.0 °F 93% 29.78 in 3.0 mi Variable 5.8 mph - 0.23 in Rain Rain
7:54 AM 64.0 °F 62.1 °F 93% 29.79 in 4.0 mi Variable 5.8 mph - 0.27 in Rain Heavy Rain
8:54 AM 64.9 °F 63.0 °F 93% 29.79 in 1.0 mi East 3.5 mph - 0.34 in Rain Heavy Rain
9:04 AM 64.9 °F 63.0 °F 93% 29.78 in 0.8 mi East 5.8 mph - 0.28 in Rain Heavy Rain
9:10 AM 64.9 °F 63.0 °F 93% 29.78 in 0.8 mi Variable 4.6 mph - 0.42 in Rain Heavy Rain
9:19 AM 64.9 °F 63.0 °F 93% 29.76 in 1.0 mi North 8.1 mph - 0.58 in Rain Heavy Rain
9:27 AM 64.4 °F 62.6 °F 94% 29.75 in 0.8 mi Variable 5.8 mph - N/A Rain Heavy Rain
9:44 AM 64.9 °F 64.0 °F 97% 29.74 in 0.8 mi NE 4.6 mph - 1.02 in Rain Heavy Rain
9:52 AM 66.2 °F 64.4 °F 94% 29.75 in 1.0 mi NNE 4.6 mph - 1.12 in Rain Heavy Rain
9:54 AM 66.0 °F 64.0 °F 93% 29.75 in 1.0 mi North 4.6 mph - 1.14 in Rain Heavy Rain
10:05 AM 66.0 °F 64.0 °F 93% 29.74 in 0.8 mi Variable 5.8 mph - 0.15 in Rain Heavy Rain
10:18 AM 66.0 °F 64.0 °F 93% 29.73 in 0.8 mi Variable 6.9 mph - 0.43 in Rain Heavy Rain
10:22 AM 66.0 °F 64.0 °F 93% 29.74 in 1.0 mi Variable 5.8 mph - 0.48 in Rain Heavy Rain
10:36 AM - - N/A% - - North - - N/A   Unknown
11:12 AM 66.0 °F 64.0 °F 93% 29.70 in 1.2 mi Variable 5.8 mph - 0.16 in Rain Heavy Rain
11:30 AM 66.0 °F 64.0 °F 93% 29.70 in 1.5 mi Variable 6.9 mph - 0.24 in Rain Rain
11:54 AM 66.0 °F 64.0 °F 93% 29.69 in 1.2 mi Variable 3.5 mph - 0.33 in Rain Heavy Rain
12:21 PM 66.0 °F 64.0 °F 93% 29.67 in 1.2 mi NNE 8.1 mph - 0.10 in Rain Rain
12:54 PM 66.0 °F 64.0 °F 93% 29.65 in 1.2 mi NE 6.9 mph - 0.18 in Rain Rain
1:17 PM 66.0 °F 64.0 °F 93% 29.65 in 1.2 mi Variable 6.9 mph - 0.03 in Rain Light Rain
1:51 PM 66.2 °F 64.4 °F 94% 29.63 in 1.2 mi NNE 4.6 mph - 0.11 in Rain Light Rain
1:54 PM 68.0 °F 64.9 °F 90% 29.64 in 1.2 mi Variable 5.8 mph - 0.11 in Rain Light Rain
2:02 PM 68.0 °F 66.0 °F 93% 29.63 in 1.5 mi Variable 5.8 mph - 0.01 in Rain Light Rain
2:09 PM 68.0 °F 66.0 °F 93% 29.63 in 2.0 mi NNE 4.6 mph - 0.01 in Rain Light Rain
2:17 PM 69.1 °F 66.0 °F 90% 29.63 in 2.5 mi Variable 4.6 mph - 0.01 in Rain Light Rain
2:34 PM 69.1 °F 66.9 °F 93% 29.62 in 4.0 mi Calm Calm - 0.02 in Rain Light Rain
2:45 PM 70.0 °F 66.9 °F 90% 29.62 in 6.0 mi NNW 4.6 mph - 0.02 in   Overcast
2:52 PM 69.8 °F 66.2 °F 88% 29.63 in 3.0 mi NNW 8.1 mph - 0.02 in Rain Light Rain
2:54 PM 69.1 °F 66.9 °F 93% 29.63 in 2.5 mi North 6.9 mph - 0.02 in Rain Light Rain
3:10 PM 68.0 °F 64.9 °F 90% 29.63 in 4.0 mi NNW 8.1 mph - 0.00 in Rain Light Rain
3:39 PM 66.9 °F 64.9 °F 93% 29.65 in 2.0 mi NNW 8.1 mph - 0.00 in Rain Light Rain
3:54 PM 66.9 °F 64.0 °F 90% 29.66 in 2.0 mi NNW 6.9 mph - 0.01 in Rain Light Rain
4:22 PM 64.9 °F 63.0 °F 93% 29.67 in 1.8 mi NNW 8.1 mph - 0.00 in Rain Light Rain
4:35 PM 64.0 °F 62.1 °F 93% 29.68 in 2.0 mi NNW 11.5 mph 23.0 mph 0.00 in Rain Light Rain
4:54 PM 63.0 °F 61.0 °F 93% 29.69 in 1.8 mi NNW 8.1 mph 18.4 mph 0.00 in Rain Light Rain
5:16 PM 62.1 °F 60.1 °F 93% 29.71 in 2.0 mi NNW 8.1 mph 18.4 mph 0.00 in Rain Light Rain
5:36 PM 62.1 °F 59.0 °F 90% 29.72 in 3.0 mi NW 11.5 mph 19.6 mph 0.00 in   Overcast
5:54 PM 61.0 °F 59.0 °F 93% 29.73 in 4.0 mi Variable 6.9 mph 17.3 mph 0.00 in   Overcast
6:54 PM 60.1 °F 57.0 °F 90% 29.77 in 4.0 mi NNW 10.4 mph 20.7 mph N/A   Overcast
7:54 PM 59.0 °F 55.9 °F 90% 29.81 in 7.0 mi NNW 9.2 mph 20.7 mph N/A   Overcast
8:54 PM 59.0 °F 55.0 °F 87% 29.83 in 10.0 mi NNW 8.1 mph 18.4 mph N/A   Overcast
9:10 PM 59.0 °F 55.0 °F 87% 29.84 in 10.0 mi NNW 8.1 mph - N/A   Overcast
9:54 PM 59.0 °F 55.0 °F 87% 29.86 in 10.0 mi Variable 5.8 mph 16.1 mph 0.00 in   Overcast
10:20 PM 60.1 °F 55.0 °F 83% 29.87 in 10.0 mi NNW 6.9 mph - N/A   Overcast
10:42 PM 60.1 °F 55.0 °F 83% 29.88 in 10.0 mi North 10.4 mph 20.7 mph N/A   Overcast
10:54 PM 60.1 °F 55.9 °F 86% 29.89 in 10.0 mi North 11.5 mph 17.3 mph N/A   Overcast
11:54 PM 59.0 °F 55.0 °F 87% 29.91 in 10.0 mi NNW 8.1 mph - N/A   Overcast